This demonstration page uses our WeatherBlox Daily Observations layout. Learn more.

Left ArrowRight Arrow

44.8408, -93.29828

Hourly Observations for March 7, 2022

Temp ( °F °C ) Dew Point ( °F °C ) Humidity (%) Winds ( mph kmh ) Pressure ( in mb ) Visibility ( mi km ) Precip ( " mm )
12:53 am 00:53 Cloudy 22 -5.6 15 -9.4 75 75 NNW 12 19 30.14 1021 10 16 0.00 0.00
1:53 am 01:53 Cloudy 23 -5 14 -10 68 68 NNW 13 20 30.14 1021 10 16 0.00 0.00
2:53 am 02:53 Cloudy 22 -5.6 14 -10 71 71 NNW 13 20 30.11 1020 10 16 0.00 0.00
3:53 am 03:53 Cloudy 21 -6.1 14 -10 74 74 NW 10 17 30.11 1020 10 16 0.00 0.00
4:25 am 04:25 Cloudy 20 -6.7 13 -10.6 74 74 NW 14 22 30.16 1021 10 16 0.00 0.00
4:53 am 04:53 Cloudy 20 -6.7 12 -11.1 71 71 NW 13 20 30.13 1020 10 16 0.00 0.00
5:53 am 05:53 Cloudy 19 -7.2 11 -11.7 71 71 NW 15 24 30.14 1021 10 16 0.00 0.00
6:46 am 06:46 Partly Cloudy 16 -8.9 9 -12.8 74 74 NW 10 17 30.19 1022 10 16 0.00 0.00
6:53 am 06:53 Mostly Sunny 16 -8.9 9 -12.8 74 74 NW 13 20 30.15 1021 10 16 0.00 0.00
7:53 am 07:53 Mostly Sunny 16 -8.9 9 -12.8 74 74 NW 14 22 30.17 1022 10 16 0.00 0.00
8:53 am 08:53 Mostly Sunny 18 -7.8 9 -12.8 68 68 NW 12 19 30.19 1022 10 16 0.00 0.00
9:53 am 09:53 Sunny 20 -6.7 10 -12.2 65 65 NW 10 17 30.19 1023 10 16 0.00 0.00
10:53 am 10:53 Sunny 22 -5.6 10 -12.2 60 60 NW 12 19 30.19 1022 10 16 0.00 0.00
11:53 am 11:53 Sunny 25 -3.9 9 -12.8 50 50 WNW 12 19 30.19 1022 10 16 0.00 0.00
12:53 pm 12:53 Sunny 27 -2.8 10 -12.2 49 49 WNW 10 17 30.18 1022 10 16 0.00 0.00
1:53 pm 13:53 Sunny 29 -1.7 11 -11.7 47 47 WNW 8 13 30.17 1022 10 16 0.00 0.00
2:53 pm 14:53 Sunny 29 -1.7 9 -12.8 43 43 W 10 17 30.17 1022 10 16 0.00 0.00
3:53 pm 15:53 Sunny 29 -1.7 9 -12.8 43 43 WNW 10 17 30.17 1022 10 16 0.00 0.00
4:53 pm 16:53 Sunny 29 -1.7 9 -12.8 43 43 W 13 20 30.17 1022 10 16 0.00 0.00
5:53 pm 17:53 Sunny 27 -2.8 12 -11.1 53 53 WSW 7 11 30.17 1022 10 16 0.00 0.00
6:53 pm 18:53 Clear 26 -3.3 12 -11.1 55 55 WSW 6 9 30.18 1022 10 16 0.00 0.00
7:53 pm 19:53 Clear 25 -3.9 14 -10 63 63 SW 6 9 30.18 1022 10 16 0.00 0.00
8:53 pm 20:53 Clear 24 -4.4 15 -9.4 68 68 SW 8 13 30.18 1022 10 16 0.00 0.00
9:53 pm 21:53 Mostly Clear 24 -4.4 16 -8.9 71 71 SW 7 11 30.17 1022 10 16 0.00 0.00
10:53 pm 22:53 Mostly Clear 23 -5 16 -8.9 74 74 SSW 6 9 30.16 1021 10 16 0.00 0.00
11:53 pm 23:53 Clear 23 -5 17 -8.3 78 78 SW 8 13 30.14 1021 10 16 0.00 0.00

Powered by AerisWeather